User: anonymous   Login
Location: Unspecified
(0.0000°N, 0.0000°E)
Time: 18:53:12
(UTC+00:00)
Language:

AAUSAT 4 - Orbit

View from above orbital plane
View from above orbital plane
View from above satellite
View from above satellite

Ground track
Ground track

The orbit data is extracted from the following two-line orbital elements,

1 41460U 16025E   17084.88068455 +.00002720 +00000-0 +15105-3 0  9999
2 41460 098.1901 117.7020 0169009 206.1590 153.1003 15.03345367050073
Epoch (UTC): 25 March 2017 21:08:11
Eccentricity: 0.0169009
inclination: 98.1901°
perigee height: 439 km
apogee height: 674 km
right ascension of ascending node: 117.7020°
argument of perigee: 206.1590°
revolutions per day: 15.03345367
mean anomaly at epoch: 153.1003°
orbit number at epoch: 5007

The dashed part of the orbit path shows where the satellite is in the earth's shadow,  

DLR